Location: Beang
(6.6177°N, 10.9863°W)
Time: 23:12:12
(UTC+00:00)

Sich 1 - Pass Details

Date: 07 June 2020
Orbit: 595 x 625 km, 82.5° (Epoch: 10 July)

Event Time Altitude Azimuth Distance (km) Brightness Sun altitude
Exits shadow 05:04:26 29° 188° (S) 1,127 4.1 -19.7°
Maximum altitude 05:06:37 83° 274° (W) 614 2.9 -19.2°
Drops below altitude 10° 05:10:55 10° 2° (N) 1,941 6.0 -18.2°
Sets 05:13:07 0° 3° (N) 2,838 6.9 -17.8°
